Meath Environmental Platform

Observations for Trim Patrick St

Time AQI Temp °C Hum % Pres Pa CO μg/m³ H₂S μg/m³ NO μg/m³ NO₂ μg/m³ O₃ μg/m³ SO₂ μg/m³ PM1 μg/m³ PM2.5 μg/m³ PM10 μg/m³
Sunday 2 August 2026
00:54 2 15 69 10,406 0.18 6.24 1.84 29.96 25.13 0 8 13.86 15.24
Saturday 1 August 2026
23:56 2 16 64 74,744 0.11 8.57 1.57 27.38 32.94 1.28 6.29 12.83 14.12
23:55 3 16 64 74,699 0.12 9.12 1.57 28.05 31.69 0.96 8 12.84 14.13
23:54 3 16.1 64 74,650 0.13 9.15 1.57 26.64 33.31 1 9.71 15.05 16.56
23:53 3 16.1 64 74,597 0.12 10.76 1.49 35.11 24.5 1.11 8 14.33 15.76
23:52 2 16.1 64 74,546 0.11 8.91 1.58 29.32 30.65 0.7 8.86 15.06 16.57
23:51 2 16.2 64 74,508 0.12 9.36 1.41 28.2 32.17 0.98 8 13.6 14.96
23:50 3 16.1 64 74,473 0.13 10.56 1.51 33.43 25.96 0.81 8 13.62 14.98
23:49 2 16.2 64 74,430 0.14 10.17 1.45 30.27 29.57 1.25 9.71 15.1 16.61
23:48 3 16.2 64 74,394 0.13 10.19 1.45 30.96 28.74 1.55 8 13.64 15
23:47 3 16.2 64 74,353 0.13 10.03 1.36 36.4 22.32 0.59 8 15.12 16.63
23:46 3 16.2 63 74,320 0.13 9.25 1.33 27.87 33.93 1.09 6.29 12.2 13.42
23:45 3 16.3 63 74,298 0.13 9.07 1.33 29.84 30.91 1.12 8.86 12.93 14.22
23:44 3 16.3 63 74,271 0.14 9.36 1.3 29.16 30.76 1.27 8 14.41 15.85
23:43 3 16.3 63 74,247 0.15 10.74 1.32 34.28 26.51 0.86 7.14 15.89 17.48
23:42 2 16.3 62 74,220 0.16 9.54 1.41 32.6 26.85 1.52 8 17.42 19.16
23:40 3 16.4 63 74,180 0.17 10.14 1.35 33.52 26.04 1.28 8 13.71 15.09
23:39 3 16.4 63 74,157 0.18 10.22 1.34 33.18 26.39 1.92 11.43 18.87 20.76
23:38 3 16.4 63 74,133 0.18 10.14 1.3 32.84 27.13 1.51 4.57 10.78 11.85
23:37 3 16.4 62 74,106 0.2 10.38 1.19 32.84 26.79 1.42 10.57 19.63 21.59